Location: Unspecified
(0.0000°N, 0.0000°E)
Time: 14:55:01
(UTC+00:00)

FENGYUN 1C DEB - Pass Details

Date: 23 February 2026
Orbit: 819 x 963 km, 99.2° (Epoch: 3 October)

Event Time Altitude Azimuth Distance (km) Brightness Sun altitude
Rises 05:05:46 0° 185° (S) 3,493 ? -16.6°
Reaches altitude 10° 05:08:26 10° 195° (SSW) 2,531 ? -16.0°
Maximum altitude 05:13:21 32° 256° (WSW) 1,432 ? -14.8°
Enters shadow 05:17:30 13° 314° (NW) 2,239 ? -13.8°
